[TLELIST] Archives

 

[list_settings.list_name] Current TLEs

April 29th 2011 PST

HST 1 20580U 90037B 11118.99279461 .00001299 00000-0 85816-4 0 7545 2 20580 028.4715 337.7902 0003416 316.5512 043.4871 15.01314156952259 ISS (ZARYA) 1 25544U 98067A 11119.29163461 .00061384 00000-0 41812-3 0 2696 2 25544 051.6455 051.8600 0002536 155.0277 342.3289 15.74273260713202 CXO 1 25867U 99040B 11116.13995573 .00000000 00000-0 10000-3 0 5992 2 25867 069.0150 035.1519 8568626 276.4044 004.8989 00.37808207 7575 ____________________________________________________________________ These 2-Line ...Continue Reading

[list_settings.list_name] Current TLEs

April 28th 2011 PST

HST 1 20580U 90037B 11118.06210884 .00001309 00000-0 86614-4 0 7535 2 20580 028.4717 343.8766 0003309 306.0738 053.9589 15.01312227952116 ISS (ZARYA) 1 25544U 98067A 11118.37871745 .00026987 00000-0 18345-3 0 2656 2 25544 051.6447 056.5491 0002648 157.4757 202.6884 15.74202879117223 CXO 1 25867U 99040B 11118.70833333 .00000249 00000-0 00000+0 0 5970 2 25867 069.0245 035.0669 8572516 276.4218 354.4782 00.37808381 7580 ____________________________________________________________________ These 2-Line ...Continue Reading

[list_settings.list_name] Current TLEs

April 27th 2011 PST

HST 1 20580U 90037B 11115.13708698 .00001272 00000-0 83826-4 0 7525 2 20580 028.4719 002.9787 0003402 273.9578 086.0684 15.01305395951673 ISS (ZARYA) 1 25544U 98067A 11117.32369421 .00030518 00000-0 21189-3 0 2603 2 25544 051.6466 061.9644 0002709 149.9069 347.3875 15.74152690712890 CXO 1 25867U 99040B 11118.70833333 .00000249 00000-0 00000+0 0 5970 2 25867 069.0245 035.0669 8572516 276.4218 354.4782 00.37808381 7580 ____________________________________________________________________ These 2-Line ...Continue Reading

[list_settings.list_name] Current TLEs

April 26th 2011 PST

HST 1 20580U 90037B 11115.13708698 .00001272 00000-0 83826-4 0 7525 2 20580 028.4719 002.9787 0003402 273.9578 086.0684 15.01305395951673 ISS (ZARYA) 1 25544U 98067A 11116.19196759 .00033274 00000-0 23120-3 0 2563 2 25544 051.6454 067.7765 0002796 142.6835 056.9957 15.74086607712711 CXO 1 25867U 99040B 11116.08333333 .00000240 00000-0 00000+0 0 5964 2 25867 069.0078 035.2198 8570620 276.4022 357.1864 00.37805534 7577 ____________________________________________________________________ These 2-Line ...Continue Reading

[list_settings.list_name] Current TLEs

April 25th 2011 PST

HST 1 20580U 90037B 11115.13708698 .00001272 00000-0 83826-4 0 7525 2 20580 028.4719 002.9787 0003402 273.9578 086.0684 15.01305395951673 ISS (ZARYA) 1 25544U 98067A 11115.35561462 .00032500 00000-0 22652-3 0 2512 2 25544 051.6450 072.0703 0002928 137.2792 359.9167 15.74028191712585 CXO 1 25867U 99040B 11116.08333333 .00000240 00000-0 00000+0 0 5964 2 25867 069.0078 035.2198 8570620 276.4022 357.1864 00.37805534 7577 ____________________________________________________________________ These 2-Line ...Continue Reading

[list_settings.list_name] Current TLEs

April 24th 2011 PST

HST 1 20580U 90037B 11112.07909464 .00001237 00000-0 81141-4 0 7506 2 20580 028.4712 022.9514 0003555 241.7240 118.2888 15.01298410951217 ISS (ZARYA) 1 25544U 98067A 11114.34431641 .00028204 00000-0 19786-3 0 2469 2 25544 051.6445 077.2626 0003090 132.9533 029.9732 15.73954764712424 CXO 1 25867U 99040B 11116.08333333 .00000240 00000-0 00000+0 0 5964 2 25867 069.0078 035.2198 8570620 276.4022 357.1864 00.37805534 7577 ____________________________________________________________________ These 2-Line ...Continue Reading

[list_settings.list_name] Current TLEs

April 23rd 2011 PST

HST 1 20580U 90037B 11112.07909464 .00001237 00000-0 81141-4 0 7506 2 20580 028.4712 022.9514 0003555 241.7240 118.2888 15.01298410951217 ISS (ZARYA) 1 25544U 98067A 11113.38894991 .00026405 00000-0 18602-3 0 2404 2 25544 051.6452 082.1689 0003004 130.3455 015.6908 15.73897462712277 CXO 1 25867U 99040B 11113.41666667 .00000105 00000-0 00000+0 0 5956 2 25867 068.9924 035.3555 8568598 276.3865 354.2237 00.37805980 7564 ____________________________________________________________________ These 2-Line ...Continue Reading

[list_settings.list_name] Current TLEs

April 22nd 2011 PST

HST 1 20580U 90037B 11112.07909464 .00001237 00000-0 81141-4 0 7506 2 20580 028.4712 022.9514 0003555 241.7240 118.2888 15.01298410951217 ISS (ZARYA) 1 25544U 98067A 11112.37512994 .00030841 00000-0 21688-3 0 2320 2 25544 051.6445 087.3723 0003057 127.7721 030.1631 15.73847929712110 CXO 1 25867U 99040B 11113.41666667 .00000105 00000-0 00000+0 0 5956 2 25867 068.9924 035.3555 8568598 276.3865 354.2237 00.37805980 7564 ____________________________________________________________________ These 2-Line ...Continue Reading

[list_settings.list_name] Current TLEs

April 21st 2011 PST

HST 1 20580U 90037B 11109.15405170 .00001367 00000-0 91050-4 0 7498 2 20580 028.4696 042.0585 0003663 211.8262 148.2086 15.01292820950773 ISS (ZARYA) 1 25544U 98067A 11111.42065141 .00029129 00000-0 20569-3 0 2269 2 25544 051.6433 092.2695 0003045 123.3890 023.0669 15.73783204711965 CXO 1 25867U 99040B 11110.79166667 -.00000001 00000-0 00000+0 0 5944 2 25867 068.9761 035.5207 8565725 276.3540 356.9636 00.37810213 7554 ____________________________________________________________________ These 2-Line ...Continue Reading

[list_settings.list_name] Current TLEs

April 20th 2011 PST

HST 1 20580U 90037B 11109.15405170 .00001367 00000-0 91050-4 0 7498 2 20580 028.4696 042.0585 0003663 211.8262 148.2086 15.01292820950773 ISS (ZARYA) 1 25544U 98067A 11110.20739816 .00021591 00000-0 15428-3 0 2196 2 25544 051.6426 098.4999 0002843 123.9391 344.1934 15.73699383711774 CXO 1 25867U 99040B 11110.79166667 -.00000001 00000-0 00000+0 0 5944 2 25867 068.9761 035.5207 8565725 276.3540 356.9636 00.37810213 7554 ____________________________________________________________________ These 2-Line ...Continue Reading
  • This mailing list is a public mailing list - anyone may join or leave, at any time.
  • This mailing list is announce-only.

International Space Station (ISS) / Hubble Space Telescope (HST) / Chandra X-Ray Observatory Orbital Data via EMAIL

Privacy Policy:

Private list